TimeEEST,TemperatureF,Dew PointF,Humidity,Sea Level PressureIn,VisibilityMPH,Wind Direction,Wind SpeedMPH,Gust SpeedMPH,PrecipitationIn,Events,Conditions,WindDirDegrees,DateUTC
2:50 AM,64.4,57.2,77,29.92,6.2,Calm,Calm,-,N/A,,Partly Cloudy,0,2013-05-07 23:50:00
5:50 AM,60.8,57.2,88,29.86,6.2,NNW,4.6,-,N/A,,Partly Cloudy,330,2013-05-08 02:50:00
6:20 AM,60.8,57.2,88,29.86,6.2,NNW,4.6,-,N/A,,Partly Cloudy,330,2013-05-08 03:20:00
6:50 AM,60.8,57.2,88,29.86,6.2,Calm,Calm,-,N/A,,Partly Cloudy,0,2013-05-08 03:50:00
7:20 AM,60.8,57.2,88,29.86,6.2,NW,4.6,-,N/A,,Mostly Cloudy,320,2013-05-08 04:20:00
7:50 AM,60.8,57.2,88,29.86,6.2,NNW,4.6,-,N/A,,Scattered Clouds,330,2013-05-08 04:50:00
8:20 AM,60.8,57.2,88,29.89,6.2,NNW,4.6,-,N/A,,Scattered Clouds,340,2013-05-08 05:20:00
8:50 AM,66.2,60.8,83,29.89,6.2,Calm,Calm,-,N/A,,Partly Cloudy,0,2013-05-08 05:50:00
9:20 AM,68.0,57.2,68,29.89,6.2,North,8.1,-,N/A,,Partly Cloudy,10,2013-05-08 06:20:00
9:50 AM,71.6,57.2,60,29.89,6.2,North,5.8,-,N/A,,Partly Cloudy,10,2013-05-08 06:50:00
10:20 AM,73.4,57.2,57,29.89,6.2,North,6.9,-,N/A,,Partly Cloudy,10,2013-05-08 07:20:00
10:50 AM,75.2,55.4,50,29.86,6.2,NNE,5.8,-,N/A,,Partly Cloudy,20,2013-05-08 07:50:00
11:20 AM,77.0,57.2,50,29.89,6.2,Calm,Calm,-,N/A,,Partly Cloudy,0,2013-05-08 08:20:00
11:50 AM,75.2,55.4,50,29.86,6.2,Calm,Calm,-,N/A,,Partly Cloudy,0,2013-05-08 08:50:00
12:20 PM,77.0,59.0,54,29.86,6.2,SSE,5.8,-,N/A,,Partly Cloudy,160,2013-05-08 09:20:00
12:50 PM,75.2,59.0,57,29.86,6.2,South,8.1,-,N/A,,Partly Cloudy,190,2013-05-08 09:50:00
1:20 PM,75.2,57.2,53,29.83,6.2,South,8.1,-,N/A,,Partly Cloudy,180,2013-05-08 10:20:00
1:50 PM,77.0,60.8,57,29.83,6.2,South,10.4,-,N/A,,Partly Cloudy,180,2013-05-08 10:50:00
2:20 PM,75.2,60.8,61,29.83,6.2,South,9.2,-,N/A,,Scattered Clouds,170,2013-05-08 11:20:00
2:50 PM,75.2,60.8,61,29.83,6.2,South,11.5,-,N/A,,Scattered Clouds,170,2013-05-08 11:50:00
3:20 PM,73.4,59.0,61,29.83,6.2,SSE,5.8,-,N/A,,Scattered Clouds,150,2013-05-08 12:20:00
3:50 PM,62.6,59.0,88,29.86,3.7,North,13.8,-,N/A,Rain-Thunderstorm,Heavy Thunderstorms and Rain,10,2013-05-08 12:50:00
4:20 PM,60.8,59.0,94,29.86,3.7,North,4.6,-,N/A,Rain-Thunderstorm,Light Thunderstorms and Rain,350,2013-05-08 13:20:00
4:50 PM,66.2,62.6,88,29.86,6.2,North,5.8,-,N/A,,Mostly Cloudy,360,2013-05-08 13:50:00
5:20 PM,69.8,60.8,73,29.83,6.2,North,9.2,-,N/A,,Scattered Clouds,10,2013-05-08 14:20:00
5:50 PM,69.8,59.0,68,29.83,6.2,North,11.5,-,N/A,,Scattered Clouds,360,2013-05-08 14:50:00
6:20 PM,71.6,59.0,64,29.83,6.2,NE,9.2,-,N/A,,Scattered Clouds,50,2013-05-08 15:20:00
6:50 PM,69.8,57.2,64,29.83,6.2,North,9.2,-,N/A,,Scattered Clouds,360,2013-05-08 15:50:00
7:20 PM,68.0,59.0,73,29.83,6.2,North,9.2,-,N/A,,Scattered Clouds,350,2013-05-08 16:20:00
7:50 PM,68.0,59.0,73,29.83,6.2,North,6.9,-,N/A,,Scattered Clouds,350,2013-05-08 16:50:00
8:20 PM,66.2,57.2,73,29.83,6.2,North,6.9,-,N/A,,Scattered Clouds,10,2013-05-08 17:20:00
8:50 PM,66.2,57.2,73,29.83,6.2,NNE,6.9,-,N/A,,Scattered Clouds,20,2013-05-08 17:50:00
11:50 PM,62.6,57.2,82,29.86,6.2,Calm,Calm,-,N/A,,Scattered Clouds,0,2013-05-08 20:50:00